GW6595 Weather Reports


time (UTC)temp
F
wind
direction
speed
knots
gust
knots
rain 1hr
in
rain 24hr
in
rain mn
in
humidity
%
barometer
mb
20260906074236 77 225 2.6 0.0 0.00 0.00 0.00 79 1011.7
20260906073636 0 292 2.6 0.0 0.00 0.00 0.00 81 1011.7
20260906073409 77 0 5.2 0.0 0.00 0.00 0.00 82 1011.9
20260906072809 0 90 1.7 0.0 0.00 0.00 0.00 83 1011.9
20260906072542 77 112 4.3 0.0 0.00 0.00 0.00 84 1012.0
20260906071942 0 45 5.2 0.0 0.00 0.00 0.00 84 1012.0
20260906071715 77 270 1.7 0.0 0.00 0.00 0.00 84 1011.9
20260906071115 0 158 2.6 0.0 0.00 0.00 0.00 84 1011.9
20260906070847 77 180 1.7 0.0 0.00 0.00 0.00 84 1012.0
20260906070248 0 112 3.5 0.0 0.00 0.00 0.00 84 1012.0
20260906065957 78 90 3.5 0.0 0.00 0.00 0.00 84 1012.1
20260906065357 0 0 4.3 0.0 0.00 0.00 0.00 83 1012.1
20260906064529 0 158 1.7 0.0 0.00 0.00 0.00 83 1011.4
20260906064242 78 135 0.0 0.0 0.00 0.00 0.00 83 1011.3
20260906063415 78 158 0.0 0.0 0.00 0.00 0.00 83 1011.2
20260906062815 0 158 0.0 0.0 0.00 0.00 0.00 83 1011.2
20260906062548 79 180 0.0 0.0 0.00 0.00 0.00 83 1010.9
20260906061948 0 225 0.9 0.0 0.00 0.00 0.00 83 1010.9
20260906061121 0 90 2.6 0.0 0.00 0.00 0.00 83 1010.9
20260906060854 79 158 1.7 0.0 0.00 0.00 0.00 83 1010.8
20260906060254 0 180 0.0 0.0 0.00 0.00 0.00 83 1010.8
20260906060025 79 112 1.7 0.0 0.00 0.00 0.00 83 1010.6
20260906055425 0 202 1.7 0.0 0.00 0.00 0.00 83 1010.6
20260906055158 79 158 4.3 0.0 0.00 0.00 0.00 84 1010.6
20260906054558 0 158 3.5 0.0 0.00 0.00 0.00 84 1010.6
20260906054330 79 135 2.6 0.0 0.00 0.00 0.00 84 1010.7
20260906053730 0 0 3.5 0.0 0.00 0.00 0.00 84 1010.7
20260906052903 0 112 5.2 0.0 0.00 0.00 0.00 86 1010.7
20260906052636 76 112 3.5 0.0 0.00 0.00 0.00 87 1010.3
20260906051808 77 112 0.0 0.0 0.00 0.00 0.00 87 1010.2
20260906051208 0 180 0.0 0.0 0.00 0.00 0.00 87 1010.2
20260906050940 77 90 0.0 0.0 0.00 0.00 0.00 87 1010.4
20260906050340 0 0 0.0 0.0 0.00 0.00 0.00 86 1010.4
20260906050113 77 45 0.0 0.0 0.00 0.00 0.00 86 1010.4
20260906045513 0 202 0.0 0.0 0.00 0.00 0.00 86 1010.4
20260906045245 77 202 0.0 0.0 0.00 0.00 0.00 86 1010.6
20260906044645 0 112 0.0 0.0 0.00 0.00 0.00 86 1010.6
20260906044417 77 202 0.0 0.0 0.00 0.00 0.00 86 1010.8
20260906043818 0 180 0.0 0.0 0.00 0.00 0.00 86 1010.8
20260906042951 0 22 0.0 0.0 0.00 0.00 0.00 84 1010.7
20260906042723 78 22 0.0 0.0 0.00 0.00 0.00 84 1010.6
20260906042123 0 180 0.0 0.0 0.00 0.00 0.00 83 1010.6
20260906041856 78 202 0.0 0.0 0.00 0.00 0.00 84 1010.8
20260906041256 0 225 0.0 0.0 0.00 0.00 0.00 83 1010.8
20260906041029 78 158 0.0 0.0 0.00 0.00 0.00 83 1010.6
20260906040430 0 158 0.0 0.0 0.00 0.00 0.00 83 1010.6
20260906040200 78 68 0.0 0.0 0.00 0.00 0.00 83 1010.7
20260906035333 78 112 0.0 0.0 0.00 0.00 0.00 83 1010.7
20260906034733 0 112 0.0 0.0 0.00 0.00 0.00 83 1010.7
20260906034506 78 112 0.0 0.0 0.00 0.00 0.00 83 1010.6
20260906033906 0 135 0.0 0.0 0.00 0.00 0.00 82 1010.6
20260906033640 79 158 0.0 0.0 0.00 0.00 0.00 82 1010.7
20260906033040 0 135 0.0 0.0 0.00 0.00 0.00 82 1010.7
20260906032811 79 135 0.0 0.0 0.00 0.00 0.00 82 1010.5
20260906032211 0 45 0.0 0.0 0.00 0.00 0.00 82 1010.5
20260906031943 79 270 0.0 0.0 0.00 0.00 0.00 82 1010.6
20260906031343 0 135 0.0 0.0 0.00 0.00 0.00 81 1010.6
20260906031116 79 225 0.0 0.0 0.00 0.00 0.00 80 1010.5
20260906030516 0 112 0.0 0.0 0.00 0.00 0.00 80 1010.5
20260906030249 79 180 0.0 0.0 0.00 0.00 0.00 80 1010.4
20260906025649 0 202 0.0 0.0 0.00 0.00 0.00 80 1010.4
20260906025422 80 180 0.0 0.0 0.00 0.00 0.00 80 1010.4
20260906024822 0 180 0.0 0.0 0.00 0.00 0.00 80 1010.4
20260906024554 79 270 0.0 0.0 0.00 0.00 0.00 80 1010.5
20260906023954 0 248 0.0 0.0 0.00 0.00 0.00 80 1010.5
20260906023727 79 112 0.0 0.0 0.00 0.00 0.00 80 1010.3
20260906023127 79 68 0.0 0.0 0.00 0.00 0.00 79 1010.3
20260906022937 0 248 0.0 0.0 0.00 0.00 0.00 79 1010.1
20260906022604 79 90 0.0 0.0 0.00 0.00 0.00 79 1010.1
20260906022004 0 248 0.0 0.0 0.00 0.00 0.00 77 1010.1
20260906021136 0 248 0.0 0.0 0.00 0.00 0.00 77 1009.8
20260906020909 80 180 0.0 0.0 0.00 0.00 0.00 77 1009.7
20260906015442 0 180 0.0 0.0 0.00 0.00 0.00 76 1009.6
20260906015215 81 202 0.0 0.0 0.00 0.00 0.00 76 1009.5
20260906014615 0 180 0.0 0.0 0.00 0.00 0.00 74 1009.5
20260906014348 81 158 0.0 0.0 0.00 0.00 0.00 74 1009.5
20260906013748 0 225 0.0 0.0 0.00 0.00 0.00 73 1009.5
20260906013521 81 158 0.0 0.0 0.00 0.00 0.00 73 1009.3
20260906012653 81 68 0.0 0.0 0.00 0.00 0.00 72 1009.4
20260906012054 0 135 0.0 0.0 0.00 0.00 0.00 70 1009.4
20260906011826 81 112 0.0 0.0 0.00 0.00 0.00 70 1009.3
20260906011226 0 135 0.0 0.0 0.00 0.00 0.00 69 1009.3
20260906010132 82 90 0.0 0.0 0.00 0.00 0.00 67 1008.9
20260906005532 0 112 0.0 0.0 0.00 0.00 0.00 66 1008.9
20260906005306 83 22 0.0 0.0 0.00 0.00 0.00 66 1008.8
20260906004704 0 338 0.0 0.0 0.00 0.00 0.00 65 1008.8
20260906003607 84 112 3.5 0.0 0.00 0.00 0.00 64 1008.8
20260906003007 0 90 2.6 0.0 0.00 0.00 0.00 64 1008.8
20260906002739 85 90 4.3 0.0 0.00 0.00 0.00 64 1008.8
20260906001312 87 112 3.5 0.0 0.00 0.00 0.00 62 1008.9
20260906000744 88 68 2.6 0.0 0.00 0.00 0.00 60 1009.1
20260906000215 89 45 5.2 0.0 0.00 0.00 0.00 58 1009.1
20260905235755 89 158 3.5 0.0 0.00 0.00 0.00 57 1009.0
20260905235114 91 68 3.5 0.0 0.00 0.00 0.00 55 1008.8
20260905234754 91 158 3.5 0.0 0.00 0.00 0.00 55 1008.7
20260905234433 0 315 0.0 0.0 0.00 0.00 0.00 54 1008.5
20260905234350 93 158 0.0 0.0 0.00 0.00 0.00 54 1008.4
20260905233751 93 248 0.0 0.0 0.00 0.00 0.00 54 1008.4
20260905233430 94 135 0.9 0.0 0.00 0.00 0.00 55 1008.4
20260905233106 94 90 3.5 0.0 0.00 0.00 0.00 54 1008.3
20260905232745 94 202 2.6 0.0 0.00 0.00 0.00 54 1008.2
20260905232425 94 112 3.5 0.0 0.00 0.00 0.00 53 1008.1
20260905231422 95 158 1.7 0.0 0.00 0.00 0.00 52 1008.1
20260905231101 96 112 4.3 0.0 0.00 0.00 0.00 51 1008.1
20260905230741 97 158 2.6 0.0 0.00 0.00 0.00 50 1008.0
20260905230419 97 68 2.6 0.0 0.00 0.00 0.00 49
20260905230059 97 90 1.7 0.0 0.00 0.00 0.00 48 1007.8
20260905225737 98 270 2.6 0.0 0.00 0.00 0.00 50
20260905225417 99 225 2.6 0.0 0.00 0.00 0.00 49 1007.8
20260905225058 99 270 1.7 0.0 0.00 0.00 0.00 48 1007.7
20260905224416 98 0 0.0 0.0 0.00 0.00 0.00 53 1007.6
20260905224056 98 68 0.0 0.0 0.00 0.00 0.00 48 1007.7
20260905223735 98 22 2.6 0.0 0.00 0.00 0.00 49 1007.7
20260905223415 98 158 0.0 0.0 0.00 0.00 0.00 50 1007.7
20260905223052 98 248 3.5 0.0 0.00 0.00 0.00 48 1007.8
20260905222730 97 225 0.9 0.0 0.00 0.00 0.00 51 1007.7
20260905222049 97 22 2.6 0.0 0.00 0.00 0.00 49 1007.9
20260905221729 96 292 1.7 0.0 0.00 0.00 0.00 51 1007.8
20260905221409 95 270 2.6 0.0 0.00 0.00 0.00 51 1007.9
20260905221048 96 158 0.0 0.0 0.00 0.00 0.00 50 1008.0
20260905220728 95 270 0.9 0.0 0.00 0.00 0.00 51 1007.9
20260905220408 95 270 1.7 0.0 0.00 0.00 0.00 51 1008.0
20260905215726 96 225 0.9 0.0 0.00 0.00 0.00 51 1008.1
20260905215405 97 248 1.7 0.0 0.00 0.00 0.00 49 1008.1
20260905215044 98 248 3.5 0.0 0.00 0.00 0.00 48 1008.0
20260905214724 99 338 3.5 0.0 0.00 0.00 0.00 46 1008.0
20260905214403 101 292 2.6 0.0 0.00 0.00 0.00 45 1008.0
20260905214042 100 225 1.7 0.0 0.00 0.00 0.00 46 1007.9
20260905213722 0 315 2.6 0.0 0.00 0.00 0.00 47 1007.9
20260905213639 99 180 0.9 0.0 0.00 0.00 0.00 46 1007.9
20260905213039 99 338 5.2 0.0 0.00 0.00 0.00 44 1007.9
20260905212359 100 338 1.7 0.0 0.00 0.00 0.00 45 1007.9
20260905212037 101 45 2.6 0.0 0.00 0.00 0.00 44 1008.0
20260905211716 0 270 1.7 0.0 0.00 0.00 0.00 43 1008.1
20260905210953 101 22 1.7 0.0 0.00 0.00 0.00 44 1008.1
20260905210353 101 225 3.5 0.0 0.00 0.00 0.00 44 1008.1
20260905210032 100 270 1.7 0.0 0.00 0.00 0.00 45 1008.1
20260905205711 100 158 1.7 0.0 0.00 0.00 0.00 45 1008.1
20260905205350 100 248 2.6 0.0 0.00 0.00 0.00 45 1008.1
20260905205029 100 0 1.7 0.0 0.00 0.00 0.00 46 1008.2
20260905204710 99 45 1.7 0.0 0.00 0.00 0.00 46 1008.1
20260905204347 99 225 2.6 0.0 0.00 0.00 0.00 46
20260905204027 99 225 3.5 0.0 0.00 0.00 0.00 47 1008.3
20260905203707 99 270 1.7 0.0 0.00 0.00 0.00 47 1008.3
20260905203346 98 158 1.7 0.0 0.00 0.00 0.00 48 1008.4
20260905203026 96 225 1.7 0.0 0.00 0.00 0.00 50 1008.6
20260905202705 0 270 1.7 0.0 0.00 0.00 0.00 51 1008.8
20260905202306 99 68 4.3 0.0 0.00 0.00 0.00 48 1008.6
20260905201702 100 135 5.2 0.0 0.00 0.00 0.00 48 1008.6
20260905201341 99 135 1.7 0.0 0.00 0.00 0.00 47 1008.6
20260905201021 98 315 0.9 0.0 0.00 0.00 0.00 46 1008.8
20260905200700 97 248 2.6 0.0 0.00 0.00 0.00 47 1008.9
20260905200339 98 112 1.7 0.0 0.00 0.00 0.00 49 1009.0
20260905200019 98 248 3.5 0.0 0.00 0.00 0.00 46 1009.1
20260905195659 97 90 2.6 0.0 0.00 0.00 0.00 48 1009.1
20260905195339 98 112 2.6 0.0 0.00 0.00 0.00 48 1009.3
20260905194657 102 45 2.6 0.0 0.00 0.00 0.00 43 1009.3
20260905194335 99 135 1.7 0.0 0.00 0.00 0.00 45 1009.2
20260905193319 101 158 2.6 0.0 0.00 0.00 0.00 45 1009.3
20260905192751 101 270 1.7 0.0 0.00 0.00 0.00 44 1009.4
20260905192224 100 68 4.3 0.0 0.00 0.00 0.00 45 1009.4
20260905191657 101 68 1.7 0.0 0.00 0.00 0.00 44 1009.7
20260905191129 100 180 3.5 0.0 0.00 0.00 0.00 44 1009.6
20260905190033 96 45 2.6 0.0 0.00 0.00 0.00 48 1010.0
20260905185506 99 68 1.7 0.0 0.00 0.00 0.00 48 1010.2
20260905184939 99 90 2.6 0.0 0.00 0.00 0.00 48 1010.0
20260905184412 97 90 2.6 0.0 0.00 0.00 0.00 49 1010.0
20260905183844 97 292 3.5 0.0 0.00 0.00 0.00 49 1010.4
20260905183317 98 0 3.5 0.0 0.00 0.00 0.00 50 1010.4
20260905182222 96 90 2.6 0.0 0.00 0.00 0.00 52 1010.5
20260905181655 97 68 0.9 0.0 0.00 0.00 0.00 51 1010.6
20260905181128 97 270 2.6 0.0 0.00 0.00 0.00 47 1010.6
20260905180600 98 135 3.5 0.0 0.00 0.00 0.00 49 1010.6
20260905180034 98 202 1.7 0.0 0.00 0.00 0.00 49 1010.7
20260905174948 97 158 2.6 0.0 0.00 0.00 0.00 50 1010.6
20260905174412 96 135 2.6 0.0 0.00 0.00 0.00 52 1010.9
20260905173316 96 315 5.2 0.0 0.00 0.00 0.00 50 1010.8
20260905172221 97 112 3.5 0.0 0.00 0.00 0.00 52 1011.0
20260905171704 97 112 4.3 0.0 0.00 0.00 0.00 50 1011.1
20260905171126 96 315 5.2 0.0 0.00 0.00 0.00 50 1011.2
20260905170559 97 180 0.0 0.0 0.00 0.00 0.00 50 1011.2
20260905170033 96 68 2.6 0.0 0.00 0.00 0.00 52 1011.2
20260905163842 96 202 2.6 0.0 0.00 0.00 0.00 54 1011.6
20260905163315 96 68 1.7 0.0 0.00 0.00 0.00 53 1011.7
20260905162751 96 248 0.0 0.0 0.00 0.00 0.00 54 1011.7
20260905162220 96 180 1.7 0.0 0.00 0.00 0.00 52 1011.7
20260905161653 96 158 0.9 0.0 0.00 0.00 0.00 56 1011.9
20260905160558 95 112 0.0 0.0 0.00 0.00 0.00 56 1012.1
20260905160032 95 68 2.6 0.0 0.00 0.00 0.00 57 1012.0
20260905154348 93 270 1.7 0.0 0.00 0.00 0.00 58 1012.1
20260905153820 0 158 1.7 0.0 0.00 0.00 0.00 58 1012.2
20260905153326 93 180 1.7 0.0 0.00 0.00 0.00 57 1012.2
20260905152726 94 0 1.7 0.0 0.00 0.00 0.00 59 1012.2
20260905152159 92 180 2.6 0.0 0.00 0.00 0.00 58 1012.2
20260905151631 92 158 1.7 0.0 0.00 0.00 0.00 61 1012.2
20260905151102 91 270 2.6 0.0 0.00 0.00 0.00 63 1012.2
20260905150548 91 270 2.6 0.0 0.00 0.00 0.00 60 1012.2
20260905150009 91 248 1.7 0.0 0.00 0.00 0.00 62 1012.2
20260905145442 90 112 3.5 0.0 0.00 0.00 0.00 65 1012.2
20260905143822 89 112 1.7 0.0 0.00 0.00 0.00 64 1012.5
20260905143253 89 270 1.7 0.0 0.00 0.00 0.00 67 1012.5
20260905142726 88 270 2.6 0.0 0.00 0.00 0.00 66 1012.6
20260905142135 88 315 0.0 0.0 0.00 0.00 0.00 68 1012.6
20260905141607 87 180 0.9 0.0 0.00 0.00 0.00 74 1012.7
20260905140452 85 270 1.7 0.0 0.00 0.00 0.00 77 1012.9
20260905135925 84 112 0.0 0.0 0.00 0.00 0.00 77 1013.0
20260905135333 82 112 1.7 0.0 0.00 0.00 0.00 79 1013.1
20260905134806 0 90 2.6 0.0 0.00 0.00 0.00 81 1013.2
20260905134256 81 22 0.0 0.0 0.00 0.00 0.00 85 1013.2
20260905133656 81 202 1.7 0.0 0.00 0.00 0.00 85 1013.2
20260905133128 80 225 0.0 0.0 0.00 0.00 0.00 85 1013.4
20260905132601 80 135 0.0 0.0 0.00 0.00 0.00 86 1013.4
20260905132008 79 225 0.0 0.0 0.00 0.00 0.00 88 1013.3
20260905131441 79 225 0.0 0.0 0.00 0.00 0.00 91 1013.4
20260905130913 78 292 0.0 0.0 0.00 0.00 0.00 91 1013.4
20260905130345 78 112 0.0 0.0 0.00 0.00 0.00 91 1013.5
20260905125817 0 112 0.0 0.0 0.00 0.00 0.00 93 1013.6
20260905125323 77 158 0.0 0.0 0.00 0.00 0.00 93 1013.7
20260905124723 76 180 0.0 0.0 0.00 0.00 0.00 93 1013.7
20260905124156 76 112 0.0 0.0 0.00 0.00 0.00 94 1013.6
20260905123628 75 112 0.0 0.0 0.00 0.00 0.00 94 1013.6
20260905123101 74 90 1.7 0.0 0.00 0.00 0.00 94 1013.7
20260905121939 74 225 0.0 0.0 0.00 0.00 0.00 94 1013.8
20260905121411 73 158 0.0 0.0 0.00 0.00 0.00 94 1013.8
20260905120842 73 202 0.0 0.0 0.00 0.00 0.00 94 1013.7
20260905120315 73 202 0.0 0.0 0.00 0.00 0.00 93 1013.8
20260905115747 72 45 0.0 0.0 0.00 0.00 0.00 93 1013.7
20260905115221 72 202 0.0 0.0 0.00 0.00 0.00 93 1013.8
20260905114653 72 112 0.0 0.0 0.00 0.00 0.00 93 1013.6
20260905113621 72 202 0.0 0.0 0.00 0.00 0.00 93 1013.3
20260905113032 72 225 0.0 0.0 0.00 0.00 0.00 93 1013.3
20260905112504 0 180 0.0 0.0 0.00 0.00 0.00 93 1013.4
20260905112237 73 202 0.0 0.0 0.00 0.00 0.00 93 1013.0
20260905111637 0 202 0.0 0.0 0.00 0.00 0.00 93 1013.0
20260905110809 0 338 0.0 0.0 0.00 0.00 0.00 93 1012.9
20260905110541 73 22 0.0 0.0 0.00 0.00 0.00 93 1012.9
20260905105941 0 248 0.0 0.0 0.00 0.00 0.00 93 1012.9
20260905105714 73 225 0.0 0.0 0.00 0.00 0.00 93 1012.7
20260905105114 0 45 0.0 0.0 0.00 0.00 0.00 93 1012.7
20260905104856 73 45 0.0 0.0 0.00 0.00 0.00 93 1012.7
20260905104256 0 45 0.0 0.0 0.00 0.00 0.00 93 1012.7
20260905104019 73 45 0.0 0.0 0.00 0.00 0.00 93 1012.5
20260905103419 0 0 0.0 0.0 0.00 0.00 0.00 93 1012.5
20260905103152 73 112 0.0 0.0 0.00 0.00 0.00 92 1012.4
20260905102552 0 202 0.0 0.0 0.00 0.00 0.00 92 1012.4
20260905100857 0 270 0.0 0.0 0.00 0.00 0.00 92 1012.4
20260905095802 73 90 0.0 0.0 0.00 0.00 0.00 92 1012.4
20260905095202 0 90 0.0 0.0 0.00 0.00 0.00 92 1012.4
20260905094335 0 90 0.0 0.0 0.00 0.00 0.00 92 1012.3
20260905094108 73 90 0.0 0.0 0.00 0.00 0.00 92 1012.3
20260905093508 0 112 0.0 0.0 0.00 0.00 0.00 92 1012.3
20260905093240 73 112 0.0 0.0 0.00 0.00 0.00 91 1012.2
20260905092640 0 158 0.0 0.0 0.00 0.00 0.00 91 1012.2
20260905092309 73 225 0.0 0.0 0.00 0.00 0.00 91 1012.2
20260905091709 0 202 0.0 0.0 0.00 0.00 0.00 91 1012.2
20260905091443 74 225 0.0 0.0 0.00 0.00 0.00 91 1012.1
20260905090843 0 135 0.0 0.0 0.00 0.00 0.00 91 1012.1
20260905090615 74 135 0.0 0.0 0.00 0.00 0.00 91 1012.1
20260905090015 0 180 0.0 0.0 0.00 0.00 0.00 91 1012.1
20260905085747 74 180 0.0 0.0 0.00 0.00 0.00 91 1012.1
20260905085147 0 202 0.0 0.0 0.00 0.00 0.00 91 1012.1
20260905084920 74 158 0.0 0.0 0.00 0.00 0.00 91 1012.2
20260905084319 0 248 0.0 0.0 0.00 0.00 0.00 91 1012.2
20260905084052 74 225 0.0 0.0 0.00 0.00 0.00 91 1012.2
20260905083451 0 270 0.0 0.0 0.00 0.00 0.00 91 1012.2
20260905083224 74 270 0.0 0.0 0.00 0.00 0.00 90 1012.1
20260905082624 0 202 0.0 0.0 0.00 0.00 0.00 90 1012.1
20260905082356 74 158 0.0 0.0 0.00 0.00 0.00 90 1012.0
20260905081756 0 112 0.0 0.0 0.00 0.00 0.00 90 1012.0
20260905081528 74 158 0.0 0.0 0.00 0.00 0.00 90 1011.9
20260905080928 0 158 0.0 0.0 0.00 0.00 0.00 90 1011.9
20260905080700 74 202 0.0 0.0 0.00 0.00 0.00 90 1011.9
20260905080100 0 270 0.0 0.0 0.00 0.00 0.00 90 1011.9
20260905075831 74 270 0.0 0.0 0.00 0.00 0.00 90 1011.9
20260905075231 0 270 0.0 0.0 0.00 0.00 0.00 90 1011.9
20260905075004 74 270 0.0 0.0 0.00 0.00 0.00 90 1011.7